Orbital Elements at Epoch 2459000.5 (2020-May-31.0) TDB
Reference: JPL 27 (heliocentric ecliptic J2000)
Element | Value | Uncertainty (1-sigma) | Units |
e | .2607293785121317 | 4.1654e-08 | |
a | 2.401471293902509 | 1.009e-08 | au |
q | 1.775337175928583 | 9.9541e-08 | au |
i | 10.90031784740786 | 4.551e-06 | deg |
node | 156.4499214730278 | 1.9276e-05 | deg |
peri | 171.1316630400986 | 2.0452e-05 | deg |
M | 169.184722452615 | 6.2318e-06 | deg |
tp | 2458361.687848321528 (2018-Aug-31.18784832) | 2.335e-05 | TDB |
period | 1359.297525630072 3.72 | 8.5665e-06 2.345e-08 | d yr |
n | .264842680290417 | 1.6691e-09 | deg/d |
Q | 3.027605411876435 | 1.272e-08 | au |
|
| | Orbit Determination Parameters
Additional Information
|